Tracking 31027 objects as of 19-Jul-2025
HD Live streaming from Space Station
objects crossing your sky now

COSMOS 252 DEB

Track COSMOS 252 DEB now!
10-day predictions


NORAD ID: 19479
Int'l Code: 1968-097ET
Perigee: 506.6 km
Apogee: 1,345.1 km
Inclination: 62.8 °
Period: 103.4 minutes
Semi major axis: 7296 km
RCS: 0.0127 m2 (small)
Launch date: November 1, 1968
Source: Commonwealth of Independent States (former USSR) (CIS)
Launch site: TYURATAM MISSILE AND SPACE COMPLEX (TTMTR)

Note: This is SATELLITE DEBRIS
Your satellite tracking list
FLOCK 4V 13
Track 1 satellite(s)




NASA's NSSDC Master Catalog

Two Line Element Set (TLE):
1 19479U 68097ET  25199.63756152  .00001747  00000-0  36225-3 0  9991
2 19479  62.7954 326.6295 0574602  35.3816 328.3971 13.92839977845848
Source of the keplerian elements: AFSPC